Regional Weather Roundup
Issued by NWS Sioux Falls, SD

Home | Current Version | Previous Version | Graphics & Text | Print | Product List | Glossary Off
Versions: 1 2 3 4 5 6 7 8 9 10 11 12 13 14 15 16 17 18 19 20 21 22 23 24 25 26 27 28 29 30 31 32 33 34 35 36 37 38 39 40 41 42 43 44 45 46 47 48 49 50

000
ASUS43 KFSD 270002
RWRFSD

WEATHER ROUNDUP FOR SE SOUTH DAKOTA/SW MINNESOTA/NW IOWA
NATIONAL WEATHER SERVICE SIOUX FALLS SD
600 PM CST MON JAN 26 2015

NOTE: "FAIR" INDICATES FEW OR NO CLOUDS BELOW 12,000 FEET WITH NO
SIGNIFICANT WEATHER AND OR OBSTRUCTIONS TO VISIBILITY.


SDZ038>040-050-052>070-270100-
SOUTHEAST SOUTH DAKOTA

CITY           SKY/WX    TMP DP  RH WIND       PRES   REMARKS
CHAMBERLAIN    NOT AVBL
HURON          CLEAR     37  33  85 NW8       29.99R
6HR MIN TEMP:  37; 6HR MAX TEMP:  51;

MADISON        FAIR      37  37 100 NW16      29.95R
MITCHELL       CLEAR     41  33  73 NW8       30.00R
6HR MIN TEMP:  41; 6HR MAX TEMP:  53;

SIOUX FALLS    MOCLDY    40  34  79 NW13      29.95R
6HR MIN TEMP:  40; 6HR MAX TEMP:  48;

WINNER         FAIR      53  31  42 NW6       30.00F
YANKTON        CLEAR     45  34  65 W8        30.01R
$$

MNZ071-072-080-081-089-090-097-098-270100-
SOUTHWEST MINNESOTA

CITY           SKY/WX    TMP DP  RH WIND       PRES   REMARKS
FAIRMONT       CLOUDY    39  32  75 NW13      29.90R
JACKSON        CLOUDY    39  34  81 NW15      29.91R
LUVERNE        CLEAR     37  34  87 NW6       29.95R
MARSHALL       CLOUDY    39  30  70 NW12      29.94R
6HR MIN TEMP:  39; 6HR MAX TEMP:  46;

MONTEVIDEO     CLOUDY    37  34  87 N12       29.93R
PIPESTONE      CLEAR     39  34  81 NW10      29.93R
REDWOOD FALLS  PTCLDY    39  32  76 NW10G21   29.90R
TRACY          MOCLDY    39  34  82 NW12      29.92R
WINDOM         CLOUDY    39  36  87 NW12      29.91R
WORTHINGTON    CLEAR     37  30  75 NW9       29.93R
$$

IAZ001>003-012>014-020>022-031-032-NEZ013-014-SDZ071-270100-
NORTHWEST IOWA

CITY           SKY/WX    TMP DP  RH WIND       PRES   REMARKS
ESTHERVILLE    CLOUDY    39  34  82 N10       29.91R
SIOUX CITY     CLEAR     47  35  63 NW12      29.98R
6HR MIN TEMP:  47; 6HR MAX TEMP:  55;

SPENCER        CLEAR     39  33  79 NW12      29.92R
6HR MIN TEMP:  39; 6HR MAX TEMP:  48;

$$

ABBREVIATIONS USED IN REMARKS
   TC - TEMPERATURE IN CELSIUS
  WCI - WIND CHILL INDEX
   HX - HEAT INDEX
  VSB - VISIBILITY




USA.gov is the U.S. government's official web portal to all federal, state and local government web resources and services.